| time (UTC) | temp F | wind direction | speed MPH | gust MPH | rain 1hr in | rain 24hr in | rain mn in | humidity % | barometer mb |
| 20260502190652 | 72 | 3 | 6.0 | 7.0 | 0.00 | 0.00 | 0.00 | 40 | 1019.5 |
| 20260502190150 | 73 | 10 | 8.0 | 10.0 | 0.00 | 0.00 | 0.00 | 42 | 1019.5 |
| 20260502185644 | 73 | 21 | 5.0 | 8.0 | 0.00 | 0.00 | 0.00 | 42 | 1019.8 |
| 20260502185141 | 72 | 2 | 4.0 | 6.0 | 0.00 | 0.00 | 0.00 | 46 | 1019.5 |
| 20260502184638 | 72 | 52 | 5.0 | 6.0 | 0.00 | 0.00 | 0.00 | 45 | 1019.5 |
| 20260502184133 | 72 | 36 | 6.0 | 7.0 | 0.00 | 0.00 | 0.00 | 44 | 1019.8 |
| 20260502183630 | 72 | 335 | 9.0 | 13.0 | 0.00 | 0.00 | 0.00 | 43 | 1019.8 |
| 20260502183126 | 72 | 341 | 2.0 | 2.0 | 0.00 | 0.00 | 0.00 | 43 | 1020.2 |
| 20260502182621 | 71 | 322 | 6.0 | 7.0 | 0.00 | 0.00 | 0.00 | 47 | 1020.2 |
| 20260502182117 | 71 | 26 | 5.0 | 6.0 | 0.00 | 0.00 | 0.00 | 44 | 1020.2 |
| 20260502181615 | 71 | 27 | 5.0 | 8.0 | 0.00 | 0.00 | 0.00 | 46 | 1020.2 |
| 20260502181114 | 71 | 3 | 10.0 | 11.0 | 0.00 | 0.00 | 0.00 | 44 | 1020.2 |
| 20260502180610 | 72 | 83 | 2.0 | 5.0 | 0.00 | 0.00 | 0.00 | 45 | 1020.2 |
| 20260502180108 | 71 | 85 | 1.0 | 2.0 | 0.00 | 0.00 | 0.00 | 45 | 1020.2 |
| 20260502164008 | 68 | 8 | 5.0 | 6.0 | 0.00 | 0.00 | 0.00 | 52 | 1020.8 |
| 20260502163503 | 68 | 64 | 5.0 | 7.0 | 0.00 | 0.00 | 0.00 | 53 | 1020.5 |
| 20260502163001 | 68 | 25 | 3.0 | 6.0 | 0.00 | 0.00 | 0.00 | 53 | 1020.5 |
| 20260502162457 | 68 | 111 | 4.0 | 6.0 | 0.00 | 0.00 | 0.00 | 55 | 1020.5 |
| 20260502161948 | 68 | 15 | 7.0 | 7.0 | 0.00 | 0.00 | 0.00 | 56 | 1020.5 |
| 20260502161445 | 67 | 24 | 3.0 | 3.0 | 0.00 | 0.00 | 0.00 | 59 | 1020.8 |
| 20260502160943 | 67 | 10 | 9.0 | 11.0 | 0.00 | 0.00 | 0.00 | 55 | 1020.5 |
| 20260502160440 | 67 | 15 | 7.0 | 8.0 | 0.00 | 0.00 | 0.00 | 57 | 1020.5 |
| 20260502151918 | 65 | 358 | 4.0 | 5.0 | 0.00 | 0.00 | 0.00 | 68 | 1020.8 |
| 20260502151414 | 65 | 41 | 1.0 | 3.0 | 0.00 | 0.00 | 0.00 | 70 | 1020.5 |
| 20260502150912 | 64 | 48 | 4.0 | 7.0 | 0.00 | 0.00 | 0.00 | 70 | 1020.5 |
| 20260502150408 | 64 | 10 | 4.0 | 5.0 | 0.00 | 0.00 | 0.00 | 71 | 1020.5 |
| 20260502130255 | 56 | 346 | 4.0 | 5.0 | 0.00 | 0.00 | 0.00 | 90 | 1019.1 |
| 20260502123740 | 54 | 11 | 1.0 | 1.0 | 0.00 | 0.00 | 0.00 | 95 | 1018.8 |
| 20260502123237 | 53 | 29 | 3.0 | 5.0 | 0.00 | 0.00 | 0.00 | 95 | 1018.8 |
| 20260502122734 | 53 | 17 | 1.0 | 2.0 | 0.00 | 0.00 | 0.00 | 95 | 1018.5 |
| 20260502122230 | 53 | 11 | 3.0 | 6.0 | 0.00 | 0.00 | 0.00 | 96 | 1018.5 |
| 20260502121728 | 53 | 0 | 1.0 | 2.0 | 0.00 | 0.00 | 0.00 | 96 | 1018.5 |
| 20260502121226 | 53 | 4 | 2.0 | 2.0 | 0.00 | 0.00 | 0.00 | 96 | 1018.5 |
| 20260502120722 | 52 | 315 | 2.0 | 3.0 | 0.00 | 0.00 | 0.00 | 96 | 1018.5 |
| 20260502120219 | 52 | 350 | 2.0 | 2.0 | 0.00 | 0.00 | 0.00 | 96 | 1018.1 |
| 20260502115717 | 52 | 9 | 1.0 | 2.0 | 0.00 | 0.00 | 0.00 | 96 | 1018.1 |
| 20260502115213 | 52 | 6 | 1.0 | 2.0 | 0.00 | 0.00 | 0.00 | 96 | 1018.1 |
| 20260502114709 | 52 | 8 | 3.0 | 3.0 | 0.00 | 0.00 | 0.00 | 96 | 1018.1 |
| 20260502114207 | 52 | 350 | 2.0 | 2.0 | 0.00 | 0.00 | 0.00 | 96 | 1018.5 |
| 20260502113703 | 52 | 5 | 1.0 | 1.0 | 0.00 | 0.00 | 0.00 | 95 | 1018.1 |
| 20260502113201 | 52 | 13 | 2.0 | 2.0 | 0.00 | 0.00 | 0.00 | 95 | 1018.1 |
| 20260502112659 | 52 | 15 | 0.0 | 1.0 | 0.00 | 0.00 | 0.00 | 95 | 1017.8 |
| 20260502112156 | 52 | 22 | 0.0 | 0.0 | 0.00 | 0.00 | 0.00 | 95 | 1018.1 |
| 20260502111654 | 52 | 26 | 4.0 | 5.0 | 0.00 | 0.00 | 0.00 | 95 | 1017.8 |
| 20260502111151 | 52 | 6 | 1.0 | 2.0 | 0.00 | 0.00 | 0.00 | 95 | 1017.8 |
| 20260502110649 | 52 | 348 | 3.0 | 5.0 | 0.00 | 0.00 | 0.00 | 95 | 1017.8 |
| 20260502110146 | 52 | 289 | 3.0 | 3.0 | 0.00 | 0.00 | 0.00 | 95 | 1017.8 |
| 20260502105643 | 52 | 1 | 2.0 | 2.0 | 0.00 | 0.00 | 0.00 | 95 | 1017.4 |
| 20260502105140 | 52 | 5 | 4.0 | 6.0 | 0.00 | 0.00 | 0.00 | 95 | 1017.4 |
| 20260502104637 | 52 | 5 | 3.0 | 5.0 | 0.00 | 0.00 | 0.00 | 95 | 1017.4 |
| 20260502104135 | 52 | 332 | 1.0 | 2.0 | 0.00 | 0.00 | 0.00 | 95 | 1017.8 |
| 20260502103632 | 52 | 33 | 2.0 | 3.0 | 0.00 | 0.00 | 0.00 | 95 | 1017.4 |
| 20260502103130 | 52 | 9 | 2.0 | 3.0 | 0.00 | 0.00 | 0.00 | 95 | 1017.4 |
| 20260502102627 | 52 | 4 | 1.0 | 1.0 | 0.00 | 0.00 | 0.00 | 95 | 1017.4 |
| 20260502102123 | 53 | 350 | 2.0 | 2.0 | 0.00 | 0.00 | 0.00 | 95 | 1017.1 |
| 20260502101621 | 53 | 301 | 2.0 | 2.0 | 0.00 | 0.00 | 0.00 | 95 | 1017.1 |
| 20260502101120 | 53 | 356 | 2.0 | 2.0 | 0.00 | 0.00 | 0.00 | 95 | 1017.1 |
| 20260502100618 | 53 | 25 | 1.0 | 2.0 | 0.00 | 0.00 | 0.00 | 95 | 1017.1 |
| 20260502100116 | 53 | 15 | 3.0 | 3.0 | 0.00 | 0.00 | 0.00 | 94 | 1016.8 |
| 20260502091044 | 53 | 351 | 1.0 | 1.0 | 0.00 | 0.00 | 0.00 | 94 | 1016.1 |
| 20260502090541 | 53 | 14 | 2.0 | 3.0 | 0.00 | 0.00 | 0.00 | 94 | 1015.7 |
| 20260502071430 | 55 | 4 | 1.0 | 1.0 | 0.00 | 0.00 | 0.00 | 89 | 1016.1 |
| 20260502070928 | 55 | 32 | 3.0 | 3.0 | 0.00 | 0.00 | 0.00 | 89 | 1016.1 |
| 20260502070426 | 55 | 346 | 2.0 | 2.0 | 0.00 | 0.00 | 0.00 | 89 | 1016.1 |
| 20260502065924 | 55 | 63 | 2.0 | 5.0 | 0.00 | 0.00 | 0.00 | 90 | 1015.7 |
| 20260502065422 | 55 | 44 | 2.0 | 2.0 | 0.00 | 0.00 | 0.00 | 90 | 1015.7 |
| 20260502064920 | 55 | 27 | 1.0 | 1.0 | 0.00 | 0.00 | 0.00 | 91 | 1015.7 |
| 20260502064417 | 55 | 75 | 2.0 | 2.0 | 0.00 | 0.00 | 0.00 | 91 | 1015.7 |
| 20260502063914 | 55 | 53 | 5.0 | 7.0 | 0.00 | 0.00 | 0.00 | 92 | 1015.7 |
| 20260502063412 | 55 | 22 | 5.0 | 8.0 | 0.00 | 0.00 | 0.00 | 92 | 1015.7 |
| 20260502062909 | 55 | 7 | 4.0 | 5.0 | 0.00 | 0.00 | 0.00 | 93 | 1015.7 |
| 20260502062406 | 55 | 34 | 3.0 | 3.0 | 0.00 | 0.00 | 0.00 | 93 | 1015.7 |
| 20260502061905 | 55 | 31 | 4.0 | 8.0 | 0.00 | 0.00 | 0.00 | 93 | 1015.7 |
| 20260502061403 | 55 | 354 | 3.0 | 5.0 | 0.00 | 0.00 | 0.00 | 93 | 1015.7 |
| 20260502060858 | 55 | 12 | 3.0 | 7.0 | 0.00 | 0.00 | 0.00 | 93 | 1015.4 |
| 20260502060353 | 55 | 29 | 5.0 | 7.0 | 0.00 | 0.00 | 0.00 | 93 | 1015.4 |
| 20260502055851 | 55 | 2 | 5.0 | 6.0 | 0.00 | 0.00 | 0.00 | 93 | 1015.7 |
| 20260502055349 | 55 | 338 | 1.0 | 3.0 | 0.00 | 0.00 | 0.00 | 93 | 1015.7 |
| 20260502054849 | 55 | 70 | 6.0 | 8.0 | 0.00 | 0.00 | 0.00 | 93 | 1015.4 |
| 20260502054345 | 55 | 52 | 2.0 | 3.0 | 0.00 | 0.00 | 0.00 | 93 | 1015.7 |
| 20260502053843 | 55 | 33 | 4.0 | 7.0 | 0.00 | 0.00 | 0.00 | 93 | 1016.1 |
| 20260502053340 | 55 | 27 | 2.0 | 3.0 | 0.00 | 0.00 | 0.00 | 93 | 1015.7 |
| 20260502052838 | 55 | 22 | 4.0 | 5.0 | 0.00 | 0.00 | 0.00 | 93 | 1016.1 |
| 20260502052335 | 55 | 16 | 7.0 | 8.0 | 0.00 | 0.00 | 0.00 | 93 | 1015.7 |
| 20260502051833 | 55 | 84 | 3.0 | 5.0 | 0.00 | 0.00 | 0.00 | 93 | 1015.7 |
| 20260502051332 | 55 | 22 | 4.0 | 6.0 | 0.00 | 0.00 | 0.00 | 94 | 1016.1 |
| 20260502050827 | 55 | 354 | 5.0 | 7.0 | 0.00 | 0.00 | 0.00 | 94 | 1015.7 |
| 20260502050324 | 55 | 313 | 5.0 | 6.0 | 0.00 | 0.00 | 0.00 | 94 | 1015.7 |
| 20260502045821 | 55 | 48 | 6.0 | 8.0 | 0.00 | 3.60 | 3.60 | 94 | 1015.7 |
| 20260502045318 | 56 | 39 | 9.0 | 14.0 | 0.00 | 3.60 | 3.60 | 94 | 1016.1 |
| 20260502044815 | 55 | 23 | 1.0 | 2.0 | 0.00 | 3.60 | 3.60 | 95 | 1015.7 |
| 20260502044311 | 56 | 21 | 6.0 | 9.0 | 0.00 | 3.60 | 3.60 | 95 | 1015.7 |
| 20260502043808 | 56 | 344 | 3.0 | 5.0 | 0.00 | 3.60 | 3.60 | 95 | 1015.7 |
| 20260502043306 | 56 | 4 | 4.0 | 5.0 | 0.00 | 3.60 | 3.60 | 95 | 1015.7 |
| 20260502042805 | 56 | 1 | 5.0 | 7.0 | 0.00 | 3.60 | 3.60 | 95 | 1015.7 |
| 20260502042306 | 56 | 20 | 7.0 | 8.0 | 0.00 | 3.60 | 3.60 | 95 | 1016.1 |
| 20260502041800 | 56 | 22 | 2.0 | 3.0 | 0.00 | 3.60 | 3.60 | 95 | 1016.1 |
| 20260502041258 | 56 | 13 | 4.0 | 5.0 | 0.00 | 3.60 | 3.60 | 95 | 1015.7 |
| 20260502040754 | 56 | 355 | 5.0 | 7.0 | 0.00 | 3.60 | 3.60 | 95 | 1015.7 |
| 20260502040251 | 56 | 343 | 6.0 | 7.0 | 0.00 | 3.60 | 3.60 | 95 | 1015.4 |
| 20260502035747 | 56 | 33 | 6.0 | 8.0 | 0.00 | 3.60 | 3.60 | 95 | 1015.4 |
| 20260502035244 | 56 | 2 | 3.0 | 3.0 | 0.00 | 3.60 | 3.60 | 95 | 1015.4 |
| 20260502034741 | 56 | 357 | 4.0 | 7.0 | 0.00 | 3.60 | 3.60 | 95 | 1015.4 |
| 20260502034240 | 56 | 54 | 5.0 | 7.0 | 0.00 | 3.60 | 3.60 | 95 | 1015.1 |
| 20260502033737 | 56 | 355 | 3.0 | 6.0 | 0.00 | 3.60 | 3.60 | 95 | 1015.1 |
| 20260502033235 | 56 | 308 | 7.0 | 8.0 | 0.00 | 3.60 | 3.60 | 95 | 1015.1 |
| 20260502032731 | 56 | 15 | 4.0 | 5.0 | 0.00 | 3.60 | 3.60 | 95 | 1014.7 |
| 20260502032227 | 56 | 350 | 5.0 | 7.0 | 0.00 | 3.60 | 3.60 | 95 | 1015.1 |
| 20260502031726 | 56 | 2 | 5.0 | 8.0 | 0.00 | 3.60 | 3.60 | 96 | 1014.7 |
| 20260502031223 | 56 | 66 | 6.0 | 8.0 | 0.00 | 3.60 | 3.60 | 96 | 1014.4 |
| 20260502030722 | 56 | 31 | 3.0 | 3.0 | 0.00 | 3.60 | 3.60 | 96 | 1014.4 |
| 20260502030220 | 56 | 39 | 4.0 | 5.0 | 0.00 | 3.60 | 3.60 | 96 | 1014.1 |
| 20260502025716 | 56 | 6 | 4.0 | 7.0 | 0.02 | 3.60 | 3.60 | 96 | 1014.1 |
| 20260502025214 | 56 | 17 | 2.0 | 2.0 | 0.02 | 3.60 | 3.60 | 96 | 1014.4 |
| 20260502024712 | 56 | 8 | 3.0 | 5.0 | 0.02 | 3.60 | 3.60 | 96 | 1014.4 |
| 20260502024210 | 56 | 0 | 5.0 | 6.0 | 0.02 | 3.60 | 3.60 | 96 | 1014.4 |
| 20260502023708 | 56 | 37 | 3.0 | 3.0 | 0.02 | 3.60 | 3.60 | 96 | 1014.4 |
| 20260502023204 | 56 | 5 | 5.0 | 8.0 | 0.02 | 3.60 | 3.60 | 96 | 1014.4 |
| 20260502022702 | 56 | 3 | 7.0 | 10.0 | 0.01 | 3.59 | 3.59 | 96 | 1014.4 |
| 20260502022158 | 56 | 40 | 3.0 | 3.0 | 0.01 | 3.59 | 3.59 | 96 | 1014.4 |
| 20260502021655 | 57 | 345 | 5.0 | 8.0 | 0.01 | 3.59 | 3.59 | 96 | 1014.4 |
| 20260502021153 | 57 | 9 | 7.0 | 9.0 | 0.01 | 3.59 | 3.59 | 96 | 1013.7 |
| 20260502020650 | 57 | 56 | 4.0 | 6.0 | 0.01 | 3.59 | 3.59 | 96 | 1014.1 |
| 20260502020147 | 57 | 2 | 5.0 | 6.0 | 0.00 | 3.58 | 3.58 | 96 | 1013.7 |
| 20260502015645 | 57 | 29 | 7.0 | 8.0 | 0.09 | 3.58 | 3.58 | 96 | 1013.7 |
| 20260502015140 | 57 | 28 | 4.0 | 5.0 | 0.09 | 3.58 | 3.58 | 96 | 1013.4 |
| 20260502014639 | 57 | 342 | 4.0 | 5.0 | 0.08 | 3.57 | 3.57 | 96 | 1013.4 |
| 20260502014135 | 57 | 333 | 7.0 | 9.0 | 0.07 | 3.56 | 3.56 | 96 | 1013.0 |
| 20260502013631 | 57 | 49 | 4.0 | 6.0 | 0.06 | 3.55 | 3.55 | 96 | 1013.4 |
| 20260502013127 | 57 | 6 | 6.0 | 8.0 | 0.05 | 3.54 | 3.54 | 96 | 1013.4 |
| 20260502012624 | 57 | 7 | 6.0 | 7.0 | 0.04 | 3.53 | 3.53 | 96 | 1013.7 |
| 20260502012122 | 57 | 1 | 6.0 | 7.0 | 0.04 | 3.53 | 3.53 | 96 | 1013.7 |
| 20260502011619 | 57 | 22 | 7.0 | 9.0 | 0.04 | 3.53 | 3.53 | 96 | 1013.4 |
| 20260502011114 | 57 | 16 | 3.0 | 6.0 | 0.03 | 3.52 | 3.52 | 96 | 1012.7 |
| 20260502010613 | 57 | 32 | 6.0 | 7.0 | 0.02 | 3.51 | 3.51 | 96 | 1012.4 |
| 20260502010109 | 58 | 22 | 5.0 | 7.0 | 0.00 | 3.49 | 3.49 | 96 | 1012.4 |
| 20260502005606 | 58 | 54 | 3.0 | 5.0 | 0.13 | 3.46 | 3.46 | 96 | 1011.7 |
| 20260502005104 | 58 | 7 | 4.0 | 5.0 | 0.10 | 3.43 | 3.43 | 96 | 1012.0 |
| 20260502004559 | 58 | 355 | 2.0 | 2.0 | 0.08 | 3.41 | 3.41 | 96 | 1012.0 |
| 20260502004056 | 58 | 18 | 9.0 | 10.0 | 0.06 | 3.39 | 3.39 | 96 | 1011.7 |
| 20260502003555 | 58 | 346 | 4.0 | 7.0 | 0.05 | 3.38 | 3.38 | 96 | 1011.7 |
| 20260502003051 | 58 | 29 | 6.0 | 9.0 | 0.05 | 3.38 | 3.38 | 96 | 1011.7 |
| 20260502002547 | 58 | 349 | 4.0 | 5.0 | 0.04 | 3.37 | 3.37 | 96 | 1012.4 |
| 20260502002045 | 58 | 19 | 3.0 | 5.0 | 0.03 | 3.36 | 3.36 | 96 | 1011.7 |
| 20260502001543 | 59 | 351 | 1.0 | 2.0 | 0.02 | 3.35 | 3.35 | 96 | 1012.4 |
| 20260502001039 | 59 | 9 | 4.0 | 6.0 | 0.01 | 3.34 | 3.34 | 96 | 1012.4 |
| 20260502000537 | 59 | 33 | 3.0 | 5.0 | 0.00 | 3.33 | 3.33 | 96 | 1011.7 |
| 20260502000034 | 59 | 14 | 5.0 | 8.0 | 0.22 | 3.33 | 3.33 | 96 | 1010.0 |
| 20260501235530 | 59 | 29 | 6.0 | 7.0 | 0.21 | 3.32 | 3.32 | 96 | 1010.7 |
| 20260501235026 | 59 | 67 | 4.0 | 5.0 | 0.21 | 3.32 | 3.32 | 96 | 1011.0 |
| 20260501234521 | 59 | 3 | 1.0 | 2.0 | 0.19 | 3.30 | 3.30 | 96 | 1011.7 |
| 20260501234020 | 59 | 55 | 3.0 | 9.0 | 0.16 | 3.27 | 3.27 | 95 | 1011.7 |
| 20260501233518 | 59 | 61 | 1.0 | 2.0 | 0.14 | 3.25 | 3.25 | 95 | 1011.7 |
| 20260501233015 | 59 | 2 | 4.0 | 6.0 | 0.11 | 3.22 | 3.22 | 95 | 1012.4 |
| 20260501232511 | 59 | 348 | 1.0 | 1.0 | 0.03 | 3.14 | 3.14 | 95 | 1012.4 |
| 20260501232008 | 59 | 359 | 3.0 | 5.0 | 0.00 | 3.11 | 3.11 | 95 | 1012.4 |
| 20260501231506 | 59 | 334 | 3.0 | 3.0 | 0.00 | 3.11 | 3.11 | 96 | 1011.7 |
| 20260501231004 | 59 | 107 | 1.0 | 1.0 | 0.00 | 3.11 | 3.11 | 96 | 1010.7 |
| 20260501230503 | 59 | 62 | 8.0 | 10.0 | 0.00 | 3.11 | 3.11 | 96 | 1010.0 |
| 20260501230000 | 59 | 23 | 3.0 | 3.0 | 0.03 | 3.11 | 3.11 | 96 | 1010.3 |
| 20260501225458 | 59 | 249 | 1.0 | 2.0 | 0.03 | 3.11 | 3.11 | 96 | 1010.7 |
| 20260501224953 | 59 | 38 | 2.0 | 5.0 | 0.03 | 3.11 | 3.11 | 96 | 1011.3 |
| 20260501224451 | 59 | 353 | 3.0 | 5.0 | 0.03 | 3.11 | 3.11 | 96 | 1011.3 |
| 20260501223948 | 59 | 80 | 4.0 | 6.0 | 0.03 | 3.11 | 3.11 | 96 | 1011.0 |
| 20260501223444 | 60 | 67 | 3.0 | 5.0 | 0.03 | 3.11 | 3.11 | 96 | 1011.0 |
| 20260501222939 | 60 | 23 | 1.0 | 2.0 | 0.02 | 3.10 | 3.10 | 96 | 1011.0 |
| 20260501222437 | 60 | 31 | 6.0 | 7.0 | 0.02 | 3.10 | 3.10 | 96 | 1011.0 |
| 20260501221933 | 60 | 11 | 7.0 | 8.0 | 0.02 | 3.10 | 3.10 | 96 | 1011.3 |
| 20260501221431 | 60 | 339 | 2.0 | 2.0 | 0.02 | 3.10 | 3.10 | 96 | 1011.3 |
| 20260501220928 | 60 | 334 | 3.0 | 3.0 | 0.02 | 3.10 | 3.10 | 96 | 1011.7 |
| 20260501220426 | 60 | 344 | 7.0 | 10.0 | 0.01 | 3.09 | 3.09 | 97 | 1011.3 |
| 20260501215921 | 60 | 47 | 7.0 | 8.0 | 0.20 | 3.08 | 3.08 | 96 | 1011.3 |
| 20260501215418 | 60 | 67 | 5.0 | 6.0 | 0.18 | 3.06 | 3.06 | 96 | 1011.7 |
| 20260501214914 | 60 | 10 | 2.0 | 2.0 | 0.16 | 3.04 | 3.04 | 97 | 1011.7 |
| 20260501214409 | 60 | 56 | 3.0 | 3.0 | 0.14 | 3.02 | 3.02 | 96 | 1011.7 |
| 20260501213905 | 60 | 5 | 2.0 | 2.0 | 0.11 | 2.99 | 2.99 | 97 | 1011.3 |
| 20260501213402 | 60 | 335 | 3.0 | 3.0 | 0.10 | 2.98 | 2.98 | 97 | 1011.0 |
| 20260501212857 | 60 | 354 | 7.0 | 9.0 | 0.09 | 2.97 | 2.97 | 97 | 1010.7 |
| 20260501212355 | 60 | 115 | 3.0 | 5.0 | 0.08 | 2.96 | 2.96 | 96 | 1010.7 |
| 20260501211851 | 60 | 341 | 2.0 | 2.0 | 0.06 | 2.94 | 2.94 | 97 | 1010.3 |
| 20260501211349 | 60 | 359 | 5.0 | 6.0 | 0.04 | 2.92 | 2.92 | 97 | 1010.0 |
| 20260501210846 | 60 | 40 | 1.0 | 2.0 | 0.02 | 2.90 | 2.90 | 97 | 1009.3 |
| 20260501210343 | 61 | 339 | 7.0 | 11.0 | 0.00 | 2.88 | 2.88 | 96 | 1010.0 |
| 20260501205839 | 61 | 13 | 3.0 | 5.0 | 0.15 | 2.88 | 2.88 | 97 | 1010.7 |
| 20260501205336 | 61 | 4 | 3.0 | 3.0 | 0.13 | 2.86 | 2.86 | 97 | 1010.7 |
| 20260501204833 | 61 | 37 | 3.0 | 3.0 | 0.10 | 2.83 | 2.83 | 97 | 1010.7 |
| 20260501204329 | 61 | 356 | 0.0 | 0.0 | 0.08 | 2.81 | 2.81 | 97 | 1011.0 |
| 20260501203826 | 61 | 333 | 9.0 | 13.0 | 0.07 | 2.80 | 2.80 | 97 | 1010.7 |
| 20260501203324 | 61 | 47 | 9.0 | 9.0 | 0.06 | 2.79 | 2.79 | 97 | 1010.0 |
| 20260501202820 | 61 | 32 | 5.0 | 6.0 | 0.05 | 2.78 | 2.78 | 97 | 1010.0 |
| 20260501202317 | 61 | 41 | 4.0 | 5.0 | 0.04 | 2.77 | 2.77 | 97 | 1010.0 |
| 20260501201814 | 61 | 13 | 3.0 | 3.0 | 0.03 | 2.76 | 2.76 | 97 | 1010.0 |
| 20260501201310 | 61 | 19 | 1.0 | 3.0 | 0.03 | 2.76 | 2.76 | 97 | 1010.0 |
| 20260501200807 | 61 | 350 | 1.0 | 2.0 | 0.02 | 2.75 | 2.75 | 97 | 1010.0 |
| 20260501200304 | 61 | 8 | 2.0 | 2.0 | 0.01 | 2.74 | 2.74 | 97 | 1009.7 |
| 20260501195802 | 61 | 42 | 1.0 | 1.0 | 0.12 | 2.72 | 2.72 | 97 | 1009.0 |
| 20260501195257 | 61 | 299 | 2.0 | 3.0 | 0.11 | 2.71 | 2.71 | 97 | 1009.7 |
| 20260501194754 | 61 | 9 | 2.0 | 3.0 | 0.09 | 2.69 | 2.69 | 97 | 1009.7 |
| 20260501194250 | 61 | 34 | 0.0 | 1.0 | 0.08 | 2.68 | 2.68 | 97 | 1009.3 |
| 20260501193746 | 61 | 19 | 0.0 | 1.0 | 0.08 | 2.68 | 2.68 | 97 | 1010.0 |
| 20260501193245 | 61 | 349 | 1.0 | 1.0 | 0.08 | 2.68 | 2.68 | 97 | 1009.3 |
| 20260501192742 | 61 | 319 | 2.0 | 3.0 | 0.08 | 2.68 | 2.68 | 97 | 1009.3 |
| 20260501192238 | 61 | 24 | 5.0 | 8.0 | 0.08 | 2.68 | 2.68 | 97 | 1009.0 |
| 20260501191736 | 61 | 334 | 2.0 | 5.0 | 0.07 | 2.67 | 2.67 | 97 | 1009.3 |
| 20260501191233 | 61 | 78 | 6.0 | 7.0 | 0.04 | 2.64 | 2.64 | 97 | 1009.3 |